User: anonymous   Login
Location: Capelle
(50.3413°N, 1.9974°E)
Time: 13:46:14
(UTC+00:00)
Language:

Cosmos 1110 Rocket - Orbit

View from above orbital plane
View from above orbital plane
View from above satellite
View from above satellite

Ground track
Ground track

The orbit is defined by the following mean orbital elements,

1 11427U          26073.90444905 +.00000000 +00000-0 +12540-3 0 00006
2 11427  74.0141 262.6352 0019591 355.0778   5.0180 14.38846751    01
Epoch (UTC): 14 March 2026 21:42:24
Eccentricity: 0.0019591
inclination: 74.0141°
perigee height: 748 km
apogee height: 776 km
right ascension of ascending node: 262.6352°
argument of perigee: 355.0778°
revolutions per day: 14.38846751
mean anomaly at epoch: 5.0180°

The dashed part of the orbit path shows where the satellite is in the earth's shadow,  

DLR